Location: Grambois
(43.7619°N, 5.5873°E)
Time: 08:53:10
(UTC+00:00)

BREEZE-M DEB (TANK) - Pass Details

Date: 10 October 2020
Orbit: 333 x 12040 km, 49.7° (Epoch: 22 October)

Event Time Altitude Azimuth Distance (km) Brightness Sun altitude
Rises 01:06:45 0° 174° (S) 13,202 8.8 -46.8°
Reaches altitude 10° 01:18:34 10° 168° (SSE) 13,599 8.8 -45.4°
Maximum altitude 02:41:42 49° 111° (ESE) 11,943 8.9 -33.3°
Drops below altitude 10° 03:27:20 10° 56° (NE) 9,029 9.2 -25.7°
Sets 03:32:22 0° 52° (NE) 9,060 9.4 -24.8°
